Weather History for KEUG - May, 2013

Change the Weather History Date:

Wednesday, May 15, 2013

  Actual Average Record
Temperature  
Mean Temperature 54 °F 55 °F  
Max Temperature 64 °F 67 °F 87 °F (2006)
Min Temperature 44 °F 43 °F 33 °F (1952)
Degree Days  
Heating Degree Days 11 10  
Month to date heating degree days 77 167  
Since 1 July heating degree days 4097 4509  
Cooling Degree Days 0 0  
Month to date cooling degree days 5 0  
Year to date cooling degree days 5 0  
Growing Degree Days 5 (Base 50)    
Moisture  
Dew Point 46 °F    
Average Humidity 73    
Maximum Humidity 86    
Minimum Humidity 60    
Precipitation  
Precipitation 0.09 in 0.09 in 0.71 in (1893)
Month to date precipitation 0.11 1.35  
Year to date precipitation 6.65 21.97  
Snow  
Snow 0.00 in - - ()
Month to date snowfall 0.0  
Since 1 July snowfall 0.0  
Snow Depth 0.00 in    
Sea Level Pressure  
Sea Level Pressure 30.10 in    
Wind  
Wind Speed 3 mph (SSW)    
Max Wind Speed 9 mph    
Max Gust Speed 15 mph    
Visibility 10 miles    
Events Rain    
T = Trace of Precipitation, MM = Missing Value Source: NWS Daily Summary

Daily Weather History Graph

Daily Weather History Graph

Search for Another Location

Airport or City:

Trip Planner

Search our weather history database for the weather conditions in past years. The results will help you decide how hot, cold, wet, or windy it might be!

Date:

Astronomy

May. 15, 2013 Rise Set
Actual Time 5:46 AM PDT 8:33 PM PDT
Civil Twilight 5:12 AM PDT 9:06 PM PDT
Nautical Twilight 4:30 AM PDT 9:49 PM PDT
Astronomical Twilight 3:41 AM PDT 10:38 PM PDT
Moon 10:29 AM PDT (5/15) 12:20 AM PDT (5/15)
Length of Visible Light 15h 54m
Length of Day
14h 47m
Waxing Crescent, 28% of the Moon is Illuminated
May 15
Waxing Crescent
May 17
First Quarter
May 24
Full
May 31
Last Quarter
Jun 8
New

Hourly Weather History & Observations

Time (PDT) Temp. Dew Point Humidity Pressure Visibility Wind Dir Wind Speed Gust Speed Precip Events Conditions
12:54 AM 46.9 °F 41.0 °F 80% 30.13 in 10.0 mi Calm Calm - N/A   Clear
1:54 AM 46.0 °F 41.0 °F 83% 30.12 in 10.0 mi Calm Calm - N/A   Clear
2:54 AM 48.0 °F 42.1 °F 80% 30.12 in 10.0 mi WSW 3.5 mph - N/A   Clear
3:54 AM 48.0 °F 41.0 °F 77% 30.12 in 10.0 mi Calm Calm - N/A   Clear
4:54 AM 46.9 °F 42.1 °F 83% 30.10 in 10.0 mi SE 3.5 mph - N/A   Partly Cloudy
5:54 AM 46.9 °F 42.1 °F 83% 30.10 in 10.0 mi South 4.6 mph - N/A   Overcast
6:54 AM 50.0 °F 42.1 °F 74% 30.11 in 10.0 mi SSW 4.6 mph - N/A   Overcast
7:54 AM 50.0 °F 44.1 °F 80% 30.12 in 10.0 mi SSW 5.8 mph - 0.01 in Rain Light Rain
8:54 AM 51.1 °F 46.0 °F 83% 30.12 in 10.0 mi Calm Calm - 0.00 in Rain Light Rain
9:54 AM 51.1 °F 45.0 °F 80% 30.13 in 9.0 mi SSW 5.8 mph - 0.00 in Rain Light Rain
10:54 AM 52.0 °F 46.9 °F 83% 30.14 in 7.0 mi SSW 3.5 mph - 0.02 in Rain Light Rain
11:54 AM 52.0 °F 46.9 °F 83% 30.14 in 8.0 mi SSW 3.5 mph - 0.04 in Rain Light Rain
12:54 PM 53.1 °F 46.0 °F 77% 30.14 in 10.0 mi Calm Calm - 0.02 in Rain Light Rain
1:54 PM 57.0 °F 46.9 °F 69% 30.12 in 10.0 mi SE 3.5 mph - 0.00 in   Overcast
2:54 PM 57.9 °F 46.9 °F 67% 30.11 in 10.0 mi Variable 3.5 mph - N/A   Mostly Cloudy
3:54 PM 63.0 °F 48.9 °F 60% 30.09 in 10.0 mi SE 9.2 mph - N/A   Mostly Cloudy
4:54 PM 62.1 °F 48.0 °F 60% 30.07 in 10.0 mi East 4.6 mph - N/A   Mostly Cloudy
5:54 PM 63.0 °F 48.0 °F 58% 30.06 in 10.0 mi West 3.5 mph - N/A   Overcast
6:54 PM 62.1 °F 48.9 °F 62% 30.06 in 10.0 mi West 4.6 mph - N/A   Overcast
7:54 PM 60.1 °F 50.0 °F 69% 30.06 in 10.0 mi Calm Calm - N/A   Overcast
8:54 PM 57.9 °F 51.1 °F 78% 30.05 in 10.0 mi NW 3.5 mph - N/A   Overcast
9:54 PM 57.0 °F 51.1 °F 81% 30.05 in 10.0 mi WSW 3.5 mph - N/A   Overcast
10:54 PM 55.9 °F 52.0 °F 87% 30.04 in 10.0 mi Calm Calm - 0.00 in   Overcast
11:54 PM 55.9 °F 51.1 °F 84% 30.03 in 10.0 mi West 3.5 mph - N/A   Overcast